sat.trackr.live / text

‹ back to catalog

NAHLA

NORAD 66764 · 2025-276DC

PAYLOAD ACTIVE UNKNOWN

§ Identity

Operator
Country
BEL
Launch date
2025-11-28
Launch site
AFWTR
Launch vehicle
Mass (kg)
RCS (m²)

External: N2YO · Heavens-Above · Gunter

§ Orbital elements

Epoch: 2026-05-25T04:26:57.340032Z

Period
94.81 min
Inclination
97.4204°
Eccentricity
0.0004223
Mean motion
15.18755746 rev/d
Perigee alt
506.7 km
Apogee alt
512.5 km
Semi-major
6,887.7 km
B*
1.1675e-4
RAAN
219.0505°
Arg perigee
69.5264°
Mean anomaly
290.6423°
Rev number
2,692

§ Raw data

NAHLA1 66764U 25276DC  26145.18538588  .00002359  00000+0  11675-3 0  99962 66764  97.4204 219.0505 0004223  69.5264 290.6423 15.18755746 26926

JSON: /api/v1/satellites/66764 · /tle

For live sub-satellite position, see the globe view (requires WebGL).

§ Visibility from observer

Set your observer location to see the next 7 days of passes ≥ 10°. The values pass through the URL so the page stays shareable.

No JS? Fill the form by hand. The geolocation button needs JavaScript.